GW7354 Weather Reports


time (UTC)temp
C
wind
direction
speed
KPH
gust
KPH
rain 1hr
cm
rain 24hr
cm
rain mn
cm
humidity
%
barometer
mb
20260504004434 10 55 0.0 0.0 0.00 0.00 0.00 50 1009.5
20260504003931 10 55 0.0 0.0 0.00 0.00 0.00 50 1009.2
20260504003427 11 55 0.0 0.0 0.00 0.00 0.00 50 1009.1
20260504002924 11 55 0.0 0.0 0.00 0.00 0.00 48 1009.3
20260504002421 11 55 0.0 0.0 0.00 0.00 0.00 49 1009.0
20260504001918 11 54 0.0 0.0 0.00 0.00 0.00 48 1008.9
20260504001416 12 54 0.0 0.0 0.00 0.00 0.00 45 1008.7
20260504000912 12 55 0.0 0.0 0.00 0.00 0.00 42 1008.8
20260504000409 12 54 0.0 0.0 0.00 0.00 0.00 46 1008.7
20260503235907 12 55 0.0 1.6 0.00 0.00 0.00 44 1008.7
20260503235404 12 63 1.6 1.6 0.00 0.00 0.00 41 1008.6
20260503234902 12 71 1.6 1.6 0.00 0.00 0.00 41 1008.6
20260503234359 12 61 0.0 0.0 0.00 0.00 0.00 41 1008.4
20260503233857 13 105 1.6 3.2 0.00 0.00 0.00 41 1008.5
20260503233353 13 37 1.6 1.6 0.00 0.00 0.00 39 1008.3
20260503232849 13 64 0.0 0.0 0.00 0.00 0.00 39 1008.1
20260503232347 13 64 0.0 0.0 0.00 0.00 0.00 38 1008.2
20260503231845 13 64 0.0 0.0 0.00 0.00 0.00 37 1008.3
20260503231341 13 64 0.0 0.0 0.00 0.00 0.00 38 1008.2
20260503230837 13 62 0.0 0.0 0.00 0.00 0.00 38 1008.3
20260503230334 13 72 1.6 1.6 0.00 0.00 0.00 38 1008.3
20260503225833 13 57 0.0 0.0 0.00 0.00 0.00 37 1008.1
20260503225328 13 135 3.2 3.2 0.00 0.00 0.00 34 1008.0
20260503224824 13 1 1.6 1.6 0.00 0.00 0.00 37 1008.1
20260503224322 13 39 0.0 0.0 0.00 0.00 0.00 39 1008.2
20260503223820 13 26 3.2 3.2 0.00 0.00 0.00 34 1008.1
20260503223317 14 354 1.6 1.6 0.00 0.00 0.00 34 1008.1
20260503222812 14 28 3.2 3.2 0.00 0.00 0.00 33 1008.0
20260503222311 14 143 3.2 3.2 0.00 0.00 0.00 35 1007.9
20260503221809 14 66 0.0 0.0 0.00 0.00 0.00 34 1007.9
20260503221307 14 101 3.2 3.2 0.00 0.00 0.00 33 1008.0
20260503220803 14 46 1.6 1.6 0.00 0.00 0.00 35 1007.8
20260503220300 14 208 3.2 3.2 0.00 0.00 0.00 33 1007.8
20260503215756 14 65 0.0 0.0 0.00 0.00 0.00 33 1007.8
20260503215253 14 44 1.6 1.6 0.00 0.00 0.00 34 1008.0
20260503214752 14 158 4.8 4.8 0.00 0.00 0.00 32 1007.9
20260503214248 14 48 0.0 1.6 0.00 0.00 0.00 32 1008.1
20260503213746 14 46 0.0 0.0 0.00 0.00 0.00 34 1007.9
20260503213243 14 56 1.6 1.6 0.00 0.00 0.00 35 1008.1
20260503212740 14 326 3.2 3.2 0.00 0.00 0.00 33 1008.1
20260503212238 14 70 0.0 0.0 0.00 0.00 0.00 31 1008.0
20260503211735 14 108 3.2 3.2 0.00 0.00 0.00 34 1008.1
20260503211231 14 49 1.6 1.6 0.00 0.00 0.00 34 1008.1
20260503210727 14 3 1.6 3.2 0.00 0.00 0.00 31 1008.0
20260503210225 14 11 1.6 3.2 0.00 0.00 0.00 34 1008.0
20260503205719 13 179 4.8 8.0 0.00 0.00 0.00 37 1008.0
20260503205216 13 193 4.8 4.8 0.00 0.00 0.00 34 1008.2
20260503204712 14 233 4.8 4.8 0.00 0.00 0.00 33 1007.9
20260503204211 14 97 3.2 3.2 0.00 0.00 0.00 33 1007.9
20260503203707 15 230 3.2 4.8 0.00 0.00 0.00 32 1007.9
20260503203205 13 99 3.2 3.2 0.00 0.00 0.00 32 1007.9
20260503202702 14 46 1.6 1.6 0.00 0.00 0.00 32 1007.9
20260503202200 14 35 0.0 1.6 0.00 0.00 0.00 33 1007.9
20260503201657 14 337 3.2 3.2 0.00 0.00 0.00 32 1008.1
20260503201155 14 40 3.2 3.2 0.00 0.00 0.00 33 1008.0
20260503200651 13 119 4.8 4.8 0.00 0.00 0.00 34 1008.0
20260503200147 14 236 8.0 9.7 0.00 0.00 0.00 33 1008.3
20260503195644 13 272 4.8 4.8 0.00 0.00 0.00 33 1008.2
20260503195141 13 63 3.2 4.8 0.00 0.00 0.00 35 1008.2
20260503194638 13 42 3.2 3.2 0.00 0.00 0.00 34 1008.2
20260503194133 13 68 1.6 3.2 0.00 0.00 0.00 35 1008.2
20260503193631 13 358 3.2 4.8 0.00 0.00 0.00 34 1008.1
20260503193126 13 41 4.8 8.0 0.00 0.00 0.00 34 1008.3
20260503192622 13 311 3.2 9.7 0.00 0.00 0.00 35 1008.4
20260503192118 13 31 1.6 1.6 0.00 0.00 0.00 34 1008.5
20260503191615 13 80 1.6 1.6 0.00 0.00 0.00 37 1008.5
20260503191112 13 28 1.6 1.6 0.00 0.00 0.00 36 1008.5
20260503190609 13 319 4.8 4.8 0.00 0.00 0.00 35 1008.7
20260503190106 13 21 1.6 1.6 0.00 0.00 0.00 36 1008.5
20260503185603 13 15 3.2 3.2 0.00 0.00 0.00 34 1008.6
20260503185102 13 311 8.0 12.9 0.00 0.00 0.00 37 1008.7
20260503184558 13 2 3.2 3.2 0.00 0.00 0.00 37 1008.8
20260503184055 13 203 4.8 8.0 0.00 0.00 0.00 35 1008.8
20260503183551 13 180 8.0 9.7 0.00 0.00 0.00 38 1008.6
20260503183048 13 37 0.0 1.6 0.00 0.00 0.00 37 1008.8
20260503182547 13 338 3.2 4.8 0.00 0.00 0.00 34 1008.8
20260503182045 13 24 1.6 1.6 0.00 0.00 0.00 35 1008.9
20260503181541 12 13 6.4 8.0 0.00 0.00 0.00 37 1008.7
20260503181037 13 6 4.8 4.8 0.00 0.00 0.00 37 1008.7
20260503180535 12 287 4.8 8.0 0.00 0.00 0.00 40 1008.7
20260503180032 12 272 4.8 9.7 0.00 0.00 0.00 39 1008.9
20260503175530 12 89 1.6 3.2 0.00 0.00 0.00 43 1009.0
20260503175026 12 24 4.8 4.8 0.00 0.00 0.00 40 1008.9
20260503174524 12 78 3.2 3.2 0.00 0.00 0.00 39 1009.1
20260503174020 12 29 1.6 1.6 0.00 0.00 0.00 40 1009.0
20260503173515 11 48 3.2 4.8 0.00 0.00 0.00 41 1009.1
20260503173012 11 286 4.8 4.8 0.00 0.00 0.00 44 1009.3
20260503172510 11 356 6.4 9.7 0.00 0.00 0.00 42 1009.3
20260503172006 11 88 6.4 8.0 0.00 0.00 0.00 44 1009.3
20260503171503 11 111 8.0 9.7 0.00 0.00 0.00 42 1009.4
20260503171000 11 53 0.0 1.6 0.00 0.00 0.00 43 1009.3
20260503170456 11 337 4.8 4.8 0.00 0.00 0.00 47 1009.3
20260503150849 10 250 4.8 4.8 0.00 0.00 0.00 47 1009.9
20260503150345 9 70 3.2 4.8 0.00 0.00 0.00 46 1010.0
20260503140309 10 45 1.6 1.6 0.00 0.00 0.00 48 1009.9
20260503131238 10 197 4.8 4.8 0.00 0.00 0.00 52 1010.0
20260503130736 10 88 3.2 3.2 0.00 0.00 0.00 55 1009.8
20260503130233 8 47 1.6 1.6 0.00 0.00 0.00 56 1009.7
20260503120159 6 67 1.6 3.2 0.00 0.00 0.00 63 1010.0
20260503110627 6 65 1.6 1.6 0.00 0.00 0.00 64 1009.3
20260503110124 6 84 3.2 3.2 0.00 0.00 0.00 66 1009.5
20260503081440 7 42 1.6 3.2 0.00 0.00 0.00 61 1008.1
20260503080937 7 68 0.0 0.0 0.00 0.00 0.00 60 1008.0
20260503080433 7 68 0.0 0.0 0.00 0.00 0.00 59 1008.0
20260503072910 7 111 3.2 3.2 0.00 0.00 0.00 59 1008.1
20260503072407 7 67 1.6 1.6 0.00 0.00 0.00 58 1008.1
20260503071904 7 81 3.2 3.2 0.00 0.00 0.00 58 1007.9
20260503071401 7 69 0.0 0.0 0.00 0.00 0.00 57 1008.0
20260503070856 7 74 1.6 1.6 0.00 0.00 0.00 56 1008.1
20260503070355 7 65 0.0 0.0 0.00 0.00 0.00 59 1008.0
20260503060320 8 65 0.0 0.0 0.00 0.00 0.00 57 1008.3
20260503054808 8 53 0.0 0.0 0.00 0.00 0.00 58 1008.3
20260503054304 8 67 0.0 1.6 0.00 0.00 0.00 57 1008.4
20260503053802 8 67 0.0 0.0 0.00 0.00 0.00 55 1008.5
20260503053300 8 68 0.0 0.0 0.00 0.00 0.00 54 1008.4
20260503052756 8 68 0.0 0.0 0.00 0.00 0.00 52 1008.2
20260503052253 8 66 0.0 0.0 0.00 0.00 0.00 54 1008.3
20260503051748 8 65 0.0 0.0 0.00 0.00 0.00 52 1008.3
20260503051246 8 65 0.0 0.0 0.00 0.00 0.00 52 1008.5
20260503050742 8 67 1.6 1.6 0.00 0.00 0.00 56 1008.5
20260503050238 8 60 0.0 0.0 0.00 0.00 0.00 54 1008.8
20260503045736 8 88 1.6 3.2 0.00 0.00 0.00 55 1008.8
20260503045234 8 75 0.0 0.0 0.00 0.00 0.00 54 1008.7
20260503044730 8 66 0.0 0.0 0.00 0.00 0.00 57 1008.8
20260503044227 8 66 0.0 0.0 0.00 0.00 0.00 57 1008.6
20260503043724 8 66 0.0 0.0 0.00 0.00 0.00 58 1008.7
20260503043222 8 66 0.0 0.0 0.00 0.00 0.00 57 1008.9
20260503042717 8 66 0.0 0.0 0.00 0.00 0.00 58 1009.0
20260503042214 8 66 0.0 0.0 0.00 0.00 0.00 53 1008.9
20260503041710 8 66 0.0 0.0 0.00 0.00 0.00 54 1008.8
20260503041208 8 66 0.0 0.0 0.00 0.00 0.00 56 1008.7
20260503040705 8 66 0.0 0.0 0.00 0.00 0.00 54 1008.9
20260503040203 8 66 0.0 0.0 0.00 0.00 0.00 51 1008.9
20260503035659 9 67 1.6 1.6 0.00 0.00 0.00 53 1008.7
20260503035157 8 66 1.6 1.6 0.00 0.00 0.00 53 1008.9
20260503034654 9 65 0.0 0.0 0.00 0.00 0.00 54 1008.7
20260503034151 9 64 0.0 0.0 0.00 0.00 0.00 54 1008.6
20260503033648 9 65 0.0 0.0 0.00 0.00 0.00 51 1008.6
20260503033146 9 100 3.2 3.2 0.00 0.00 0.00 50 1008.7
20260503032644 9 73 0.0 0.0 0.00 0.00 0.00 51 1008.4
20260503032143 10 70 0.0 1.6 0.00 0.00 0.00 49 1008.4
20260503031639 10 66 0.0 0.0 0.00 0.00 0.00 48 1008.8
20260503031137 10 75 1.6 1.6 0.00 0.00 0.00 49 1008.6
20260503030633 9 72 0.0 1.6 0.00 0.00 0.00 47 1008.7
20260503030130 9 73 0.0 0.0 0.00 0.00 0.00 56 1008.7
20260503025626 9 92 3.2 3.2 0.00 0.00 0.00 50 1008.9
20260503025124 9 60 0.0 0.0 0.00 0.00 0.00 53 1008.5
20260503024620 10 75 1.6 1.6 0.00 0.00 0.00 52 1008.7
20260503024118 10 73 0.0 1.6 0.00 0.00 0.00 49 1008.7
20260503023615 10 73 0.0 0.0 0.00 0.00 0.00 50 1008.8
20260503023112 10 65 0.0 1.6 0.00 0.00 0.00 51 1008.6
20260503022607 10 74 0.0 1.6 0.00 0.00 0.00 48 1008.7
20260503022102 10 73 0.0 0.0 0.00 0.00 0.00 51 1008.8
20260503021600 10 75 1.6 1.6 0.00 0.00 0.00 52 1008.8
20260503021056 10 61 0.0 0.0 0.00 0.00 0.00 51 1008.7
20260503020553 10 76 3.2 3.2 0.00 0.00 0.00 50 1008.6
20260503020050 10 74 0.0 1.6 0.00 0.00 0.00 54 1008.9
20260503015547 10 74 0.0 0.0 0.00 0.00 0.00 51 1008.8
20260503015044 10 74 0.0 0.0 0.00 0.00 0.00 51 1008.9
20260503014540 10 74 0.0 0.0 0.00 0.00 0.00 50 1008.8
20260503014038 10 78 1.6 1.6 0.00 0.00 0.00 52 1009.0
20260503013535 10 72 0.0 0.0 0.00 0.00 0.00 50 1008.8
20260503013033 10 72 0.0 0.0 0.00 0.00 0.00 50 1009.0
20260503012530 10 72 0.0 0.0 0.00 0.00 0.00 50 1009.0
20260503012026 10 72 0.0 0.0 0.00 0.00 0.00 51 1008.9
20260503011523 10 72 0.0 0.0 0.00 0.00 0.00 48 1008.7
20260503011021 11 72 0.0 0.0 0.00 0.00 0.00 50 1008.7
20260503010516 11 72 0.0 0.0 0.00 0.00 0.00 52 1008.7
20260503010015 11 72 1.6 1.6 0.00 0.00 0.00 50 1008.8
20260503005511 11 72 0.0 0.0 0.00 0.00 0.00 50 1008.5
20260503005008 11 72 0.0 0.0 0.00 0.00 0.00 49 1008.4